Hot Springs, VA

3:05 PM EDT on September 21, 2017 (GMT -0400)
Ingalls

Weather History for KHSP - January, 2015

Change the Weather History Date:

Monday, January 26, 2015

  Actual Average Record
Temperature  
Mean Temperature 26 °F -  
Max Temperature 33 °F 32 °F 55 °F (2012)
Min Temperature 19 °F 18 °F 3 °F (2000)
Degree Days  
Heating Degree Days 38    
Moisture  
Dew Point 30 °F    
Average Humidity 99    
Maximum Humidity 100    
Minimum Humidity 88    
Precipitation  
Precipitation 0.14 in - - ()
Sea Level Pressure  
Sea Level Pressure 29.57 in    
Wind  
Wind Speed 4 mph (West)    
Max Wind Speed 20 mph    
Max Gust Speed 24 mph    
Visibility 1 miles    
Events Fog , Rain , Snow    
Averages and records for this station are not official NWS values.
T = Trace of Precipitation, MM = Missing Value Source: NWS Daily Summary

Daily Weather History Graph

Daily Weather History Graph

Search for Another Location

Airport or City:

Trip Planner

Search our weather history database for the weather conditions in past years. The results will help you decide how hot, cold, wet, or windy it might be!

Date:

Astronomy

Jan. 26, 2015 Rise Set
Actual Time 7:28 AM EST 5:35 PM EST
Civil Twilight 7:00 AM EST 6:03 PM EST
Nautical Twilight 6:28 AM EST 6:35 PM EST
Astronomical Twilight 5:57 AM EST 7:06 PM EST
Moon 11:18 AM EST (1/26) No Moon Set
Length of Visible Light 11h 03m
Length of Day
10h 07m
Waxing Crescent, 45% of the Moon is Illuminated
Jan 26
Waxing Crescent
Jan 26
First Quarter
Feb 3
Full
Feb 11
Last Quarter
Feb 18
New

Hourly Weather History & Observations

Time (EST) Temp. Windchill Dew Point Humidity Pressure Visibility Wind Dir Wind Speed Gust Speed Precip Events Conditions
12:15 AM 33.4 °F 29.1 °F 30.2 °F 88% 29.65 in 10.0 mi SSE 4.6 mph - N/A   Overcast
12:35 AM 33.1 °F 30.0 °F 30.6 °F 90% 29.64 in 10.0 mi SSE 3.5 mph - N/A   Overcast
12:55 AM 33.1 °F 30.0 °F 31.5 °F 94% 29.63 in 10.0 mi SSE 3.5 mph - N/A   Overcast
1:15 AM 33.1 °F 30.0 °F 32.0 °F 96% 29.63 in 10.0 mi SSE 3.5 mph - N/A   Overcast
1:35 AM 33.1 °F 28.7 °F 32.0 °F 96% 29.63 in 10.0 mi SSE 4.6 mph - N/A   Overcast
1:55 AM 32.9 °F 28.5 °F 32.9 °F 100% 29.63 in 4.0 mi SSE 4.6 mph - N/A Snow Light Snow
2:15 AM 32.5 °F - 32.5 °F 100% 29.62 in 1.2 mi Calm Calm - N/A Snow Light Snow
2:35 AM 32.0 °F - 32.0 °F 100% 29.61 in 0.2 mi Calm Calm - N/A Snow Snow
2:55 AM 32.0 °F - 32.0 °F 100% 29.60 in 0.2 mi Calm Calm - N/A Snow Light Snow
3:15 AM 32.0 °F - 32.0 °F 100% 29.59 in 0.2 mi Calm Calm - N/A Snow Light Snow
3:35 AM 32.0 °F - 32.0 °F 100% 29.59 in 0.2 mi Calm Calm - N/A Snow Snow
3:55 AM 32.0 °F - 32.0 °F 100% 29.58 in 0.2 mi Calm Calm - N/A Snow Light Snow
4:15 AM 32.0 °F - 32.0 °F 100% 29.58 in 1.2 mi Calm Calm - N/A Snow Light Snow
4:35 AM 32.4 °F - 32.4 °F 100% 29.58 in 1.2 mi Calm Calm - N/A Snow Light Snow
4:55 AM 32.4 °F - 32.4 °F 100% 29.57 in 0.2 mi Calm Calm - N/A Snow Light Snow
5:15 AM 32.4 °F - 32.4 °F 100% 29.57 in 0.2 mi Calm Calm - N/A Snow Light Snow
5:35 AM 32.0 °F - 32.0 °F 100% 29.57 in 0.2 mi Calm Calm - N/A Snow Light Snow
5:55 AM 31.8 °F - 31.8 °F 100% 29.57 in 0.2 mi Calm Calm - N/A Snow Light Snow
6:15 AM 31.8 °F - 31.8 °F 100% 29.57 in 0.2 mi Calm Calm - N/A Snow Light Snow
6:35 AM 31.6 °F - 31.6 °F 100% 29.57 in 0.2 mi Calm Calm - N/A Snow Light Snow
6:55 AM 31.5 °F - 31.5 °F 100% 29.57 in 0.2 mi Calm Calm - N/A Snow Light Snow
7:15 AM 31.5 °F - 31.5 °F 100% 29.57 in 0.2 mi Calm Calm - N/A Snow Light Snow
7:35 AM 31.8 °F - 31.8 °F 100% 29.58 in 0.2 mi Calm Calm - N/A Fog Fog
7:55 AM 32.0 °F - 32.0 °F 100% 29.58 in 0.2 mi Calm Calm - N/A Fog Fog
8:15 AM 32.0 °F - 32.0 °F 100% 29.58 in 0.2 mi Calm Calm - N/A Fog Fog
8:35 AM 32.0 °F - 32.0 °F 100% 29.58 in 0.2 mi Calm Calm - N/A Fog Fog
8:55 AM 32.0 °F - 32.0 °F 100% 29.58 in 0.2 mi Calm Calm - N/A Fog Fog
9:15 AM - - - N/A% - - North - - N/A   Overcast
9:35 AM - - - N/A% - - North - - N/A   Unknown
9:55 AM - - - N/A% - - North - - N/A   Unknown
10:15 AM - - - N/A% - - North - - N/A   Unknown
10:35 AM 32.9 °F - 32.9 °F 100% 29.59 in 0.2 mi Calm Calm - N/A Fog Fog
10:55 AM 33.1 °F - 33.1 °F 100% 29.58 in 0.2 mi Calm Calm - N/A Snow Light Snow
11:15 AM 33.3 °F - 33.3 °F 100% 29.58 in 0.2 mi Calm Calm - N/A Fog Fog
11:35 AM 33.4 °F - 33.4 °F 100% 29.58 in 0.2 mi Calm Calm - N/A Fog Fog
11:55 AM 33.4 °F - 33.4 °F 100% 29.57 in 0.2 mi Calm Calm - N/A Rain Light Rain
12:15 PM 32.9 °F - 32.9 °F 100% 29.56 in 0.2 mi Calm Calm - 0.03 in Snow Light Snow
12:35 PM 32.7 °F - 32.7 °F 100% 29.56 in 0.2 mi Calm Calm - 0.08 in Fog Fog
12:55 PM 32.7 °F - 32.7 °F 100% 29.54 in 0.2 mi Calm Calm - 0.11 in Fog Fog
1:15 PM 32.4 °F - 32.4 °F 100% 29.54 in 0.2 mi Calm Calm - 0.01 in Fog Fog
1:35 PM 32.5 °F - 32.5 °F 100% 29.53 in 0.2 mi Calm Calm - 0.02 in Fog Fog
1:55 PM 32.9 °F - 32.9 °F 100% 29.53 in 0.2 mi Calm Calm - 0.02 in Snow Light Snow
2:15 PM 32.9 °F - 32.9 °F 100% 29.52 in 0.2 mi Calm Calm - N/A Snow Light Snow
2:35 PM 32.9 °F - 32.9 °F 100% 29.52 in 0.2 mi Calm Calm - N/A Snow Light Snow
2:55 PM 32.9 °F - 32.9 °F 100% 29.52 in 0.2 mi Calm Calm - N/A Snow Light Snow
3:15 PM 32.9 °F - 32.9 °F 100% 29.52 in 0.2 mi Calm Calm - N/A Snow Light Snow
3:35 PM 33.1 °F - 33.1 °F 100% 29.52 in 0.2 mi Calm Calm - N/A Snow Light Snow
3:55 PM 32.9 °F 29.8 °F 32.9 °F 100% 29.52 in 0.2 mi WNW 3.5 mph - N/A Snow Light Snow
4:15 PM 32.2 °F 24.4 °F 32.2 °F 100% 29.53 in 0.2 mi WNW 9.2 mph - N/A Snow Light Snow
4:35 PM 32.0 °F 26.4 °F 32.0 °F 100% 29.53 in 0.2 mi West 5.8 mph - N/A Snow Light Snow
4:55 PM 31.5 °F - 31.5 °F 100% 29.54 in 0.2 mi Calm Calm - 0.01 in Snow Light Snow
5:15 PM 30.6 °F 22.4 °F 30.6 °F 100% 29.55 in 0.2 mi West 9.2 mph - N/A Snow Light Snow
5:35 PM 30.0 °F 21.1 °F 30.0 °F 100% 29.55 in 0.2 mi West 10.4 mph - N/A Snow Light Snow
5:55 PM 29.1 °F 17.9 °F 29.1 °F 100% 29.55 in 0.2 mi WNW 15.0 mph - N/A Snow Light Snow
6:15 PM 28.2 °F 15.9 °F 28.2 °F 100% 29.56 in 0.2 mi WNW 17.3 mph 21.9 mph N/A Snow Light Snow
6:35 PM 27.0 °F 14.7 °F 27.0 °F 100% 29.57 in 0.2 mi West 16.1 mph 24.2 mph N/A Snow Light Snow
6:55 PM 26.1 °F 12.7 °F 26.1 °F 100% 29.57 in 0.2 mi West 18.4 mph 24.2 mph N/A Snow Heavy Snow
7:15 PM 24.8 °F 11.1 °F 24.8 °F 100% 29.58 in 0.2 mi WNW 18.4 mph 21.9 mph N/A Snow Heavy Snow
7:35 PM 24.4 °F 12.4 °F 24.4 °F 100% 29.59 in 0.2 mi WNW 13.8 mph 20.7 mph N/A Snow Snow
7:55 PM 23.5 °F 9.9 °F 23.5 °F 100% 29.59 in 0.2 mi WNW 17.3 mph 20.7 mph N/A Snow Heavy Snow
8:15 PM 23.0 °F 10.6 °F 23.0 °F 100% 29.59 in 2.5 mi WNW 13.8 mph - N/A Snow Light Snow
8:35 PM 22.6 °F 9.6 °F 22.6 °F 100% 29.60 in 5.0 mi WNW 15.0 mph - N/A Snow Light Snow
8:55 PM 22.3 °F 7.4 °F 22.3 °F 100% 29.59 in 3.0 mi WNW 19.6 mph - N/A Snow Light Snow
9:15 PM 21.9 °F 8.2 °F 21.9 °F 100% 29.60 in 3.0 mi WNW 16.1 mph - N/A Snow Light Snow
9:35 PM 21.6 °F 6.9 °F 21.6 °F 100% 29.59 in 1.0 mi WNW 18.4 mph - N/A Snow Light Snow
9:55 PM 21.0 °F 6.2 °F 21.0 °F 100% 29.59 in 5.0 mi WNW 18.4 mph - N/A Snow Light Snow
10:15 PM 20.8 °F 5.9 °F 20.8 °F 100% 29.59 in 0.8 mi WNW 18.4 mph - N/A Snow Light Snow
10:35 PM 20.8 °F 5.9 °F 20.8 °F 100% 29.59 in 0.2 mi WNW 18.4 mph - N/A Snow Light Snow
10:55 PM 20.7 °F 6.1 °F 20.7 °F 100% 29.59 in 0.2 mi WNW 17.3 mph - N/A Snow Light Snow
11:15 PM 20.3 °F 5.7 °F 20.3 °F 100% 29.58 in 0.2 mi WNW 17.3 mph - N/A Snow Light Snow
11:35 PM 20.3 °F 6.1 °F 20.3 °F 100% 29.59 in 0.2 mi WNW 16.1 mph - N/A Snow Light Snow
11:55 PM 19.9 °F 5.7 °F 19.9 °F 100% 29.59 in 0.2 mi WNW 16.1 mph - N/A Snow Light Snow